Miscellaneous Hydrologic Data Report
Issued by NWS (Baltimore/Washington) Sterling, VA
1 of 54 available versions  First Miscellaneous Hydrologic Data Report Previous Miscellaneous Hydrologic Data Report  Print this page Close this Window


000
ASUS41 KLWX 220510
RWRLWX

REGIONAL WEATHER ROUNDUP
NATIONAL WEATHER SERVICE BALTIMORE MD/WASHINGTON DC
100 AM EDT FRI AUG 22 2014

Note: "FAIR" indicates few or no clouds below 12,000 feet
with no significant weather and/or obstructions to visibility.
 TC=TEMPERATURE CELSIUS

 * =Non NWS site. Station does not report precipitation (e.g. rain,
    snow, etc.), thunder, or fog.

DCZ001-MDZ009-015-VAZ040>042-051-053>054-220600-
WASHINGTON METRO
  /KDAA//-FT BELVOIR

CITY           SKY/WX    TMP DP  RH WIND       PRES   REMARKS
WASHINGTON NAT PTCLDY    77  70  79 CALM      29.98F
DULLES         PTCLDY    70  69  97 CALM      30.00S
ANDREWS AFB    MOCLDY    74  72  95 W1        29.98F
QUANTICO       PTCLDY    76  72  87 W6        30.00S
COLLEGE PARK*  PTCLDY    73  73 100 CALM      29.98S
LEESBURG*      CLEAR     73  70  88 NW8       30.01S
MANASSAS*      CLEAR     72  72 100 NE3       29.99F
GAITHERSBURG*  MOCLDY    70  68  94 CALM      30.03F

$$

MDZ006>007-011-014-220600-
BALTIMORE METRO

CITY           SKY/WX    TMP DP  RH WIND       PRES   REMARKS
BWI AIRPORT    PTCLDY    73  68  84 CALM      29.97F
MD SCIENCE CTR   N/A     77  71  82 MISG      29.98F
MARTIN STATE   PTCLDY    73  73 100 NW3       29.99R FOG
ANNAPOLIS      PTCLDY    75  71  87 CALM      29.97F
FORT MEADE*    PTCLDY    68  66  94 CALM      30.00F

$$

MDZ012-015-019>023-220600-
MARYLAND EASTERN SHORE

CITY           SKY/WX    TMP DP  RH WIND       PRES   REMARKS
OCEAN CITY     CLOUDY    77  74  90 S5        29.99F
SALISBURY      CLOUDY    76  72  87 CALM      29.98F
BAY BRIDGE AP*   N/A     77  72  83 CALM      29.97S
CAMBRIDGE*     MOCLDY    77  72  83 SE5       29.97F
EASTON*        MOCLDY    77  77 100 CALM      30.01S

$$

MDZ017>025-220600-
SOUTHERN MARYLAND

CITY           SKY/WX    TMP DP  RH WIND       PRES   REMARKS
PATUXENT RIVER NOT AVBL
ST INIGOES     MOCLDY    77  72  84 S3        29.97F THUNDER
LEONARDTOWN*   MOCLDY    75  70  83 CALM      29.99F

$$

MDZ003>005-220600-
NORTH CENTRAL MARYLAND

CITY           SKY/WX    TMP DP  RH WIND       PRES   REMARKS
FREDERICK*     MOCLDY   N/A N/A N/A CALM      30.02S HAZE
HAGERSTOWN APT PTCLDY    70  65  84 SE5       30.01S
WESTMINSTER*   CLEAR     70  68  94 CALM      30.01S

$$

MDZ501>502-220600-
WESTERN MARYLAND

CITY           SKY/WX    TMP DP  RH WIND       PRES   REMARKS
OAKLAND*       CLOUDY    63 N/A N/A W6        30.14S
CUMBERLAND*    MOCLDY    68  64  88 CALM      30.07F

$$

VAZ025>031-220600-
SHENANDOAH VALLEY

CITY           SKY/WX    TMP DP  RH WIND       PRES   REMARKS
WINCHESTER*    PTCLDY    70  64  83 CALM      30.03S
STAUNTON*      MOCLDY    69  65  88 CALM      30.08S

$$

WVZ021-048>050-054>055-220600-
EASTERN WEST VIRGINIA PANHANDLE

CITY           SKY/WX    TMP DP  RH WIND       PRES   REMARKS
MARTINSBURG    PTCLDY    71  64  78 SW3       30.02F
PETERSBURG*    NOT AVBL

$$

VAZ036>039-050-220600-
CENTRAL FOOTHILLS

CITY           SKY/WX    TMP DP  RH WIND       PRES   REMARKS
CHARLOTTESVILL CLOUDY    74  69  85 VRB3      30.01F
ORANGE*        CLOUDY    73  70  88 SW5       30.01F

$$

VAZ055>057-220600-
NORTH AND CENTRAL PIEDMONT

CITY           SKY/WX    TMP DP  RH WIND       PRES   REMARKS
FREDERICKSBRG* CLOUDY    78  75  92 CALM      29.98F
STAFFORD*      FOG       72  72 100 CALM      30.03S VSB 1

$$

NCZ024-NYZ072-PAZ021-071-VAZ022-071-220600-
OTHER REGIONAL OBSERVATIONS

CITY           SKY/WX    TMP DP  RH WIND       PRES   REMARKS
NEW YORK CITY  LGT RAIN  66  64  93 VRB3      30.05F FOG
PHILADELPHIA   CLOUDY    73  67  81 SE6       29.99F
PITTSBURGH     CLOUDY    69  67  93 SW5       30.04F
ROANOKE        MOCLDY    72  66  81 W10       30.10F
RICHMOND       CLOUDY    80  70  71 W9        29.98F
RALEIGH        MOCLDY    78  72  81 CALM      30.03F

$$

ANZ530>537-220600-
MARINE OBSERVATIONS

STATION/POSITION TIME  TEMP    WIND        PRES
                       AIR SEA DIR/SP/G
                 (UTC) (F)     (DEG/KT/KT) (MB)
THOMAS PT LIGHT  0500   78 78  250/  3/  3 1015.5F
BALT KEY BRIDGE  0500   76     250/  3/  4 1014.7F
COVE POINT       0500   77     140/  5/  6 1014.8F
LEWISETTA        0500   77 81  230/  5/  6 1014.4F
SOLOMONS ISLAND  0500      81                N/A
PINEY POINT      0500          260/  5/  7   N/A

$$


Close this window


The National Weather Service prepares its forecasts and other services in collaboration with agencies like the US Geological Survey, US Bureau of Reclamation, US Army Corps of Engineers, Natural Resource Conservation Service, National Park Service, ALERT Users Group, Bureau of Indian Affairs, and many state and local emergency managers across the country. For details, please click here.

National Weather Service
(Baltimore/Washington) Sterling Weather Forecast Office
43858 Weather Service Rd.
Sterling, VA 20166
(703) 996-2200
Page last modified: 22-Aug-2014 5:10 AM
Disclaimer
Credits
Glossary
Privacy Policy
About Us
Career Opportunities